Change the Weather History Date:

Monday, November 19, 2012

  Actual Average Record
Temperature  
Mean Temperature 42 °F -  
Max Temperature 56 °F 50 °F 66 °F (1999)
Min Temperature 29 °F 33 °F 11 °F (2014)
Degree Days  
Heating Degree Days 22    
Moisture  
Dew Point 30 °F    
Average Humidity 63    
Maximum Humidity 81    
Minimum Humidity 39    
Precipitation  
Precipitation 0.00 in - - ()
Sea Level Pressure  
Sea Level Pressure 30.31 in    
Wind  
Wind Speed 1 mph (ENE)    
Max Wind Speed 6 mph    
Max Gust Speed -    
Visibility 10 miles    
Events      
Averages and records for this station are not official NWS values.
T = Trace of Precipitation, MM = Missing Value Source: NWS Daily Summary

Daily Weather History Graph

Daily Weather History Graph

Search for Another Location

Airport or City:

Trip Planner

Search our weather history database for the weather conditions in past years. The results will help you decide how hot, cold, wet, or windy it might be!

Date:

Astronomy

Nov. 19, 2012 Rise Set
Actual Time 7:21 AM EST 5:12 PM EST
Civil Twilight 6:52 AM EST 5:41 PM EST
Nautical Twilight 6:19 AM EST 6:14 PM EST
Astronomical Twilight 5:47 AM EST 6:46 PM EST
Moon 12:23 PM EST (11/19) 11:38 PM EST (11/19)
Length of Visible Light 10h 49m
Length of Day
9h 51m
Waxing Crescent, 40% of the Moon is Illuminated
Nov 19
Waxing Crescent
Nov 20
First Quarter
Nov 28
Full
Dec 6
Last Quarter
Dec 13
New

Hourly Weather History & Observations

Time (EST) Temp. Windchill Dew Point Humidity Pressure Visibility Wind Dir Wind Speed Gust Speed Precip Events Conditions
12:15 AM 36.7 °F 34.1 °F 24.4 °F 61% 30.40 in 10.0 mi East 3.5 mph - N/A   Clear
12:35 AM 35.2 °F - 24.6 °F 65% 30.39 in 10.0 mi Calm Calm - N/A   Clear
12:55 AM 34.5 °F - 25.0 °F 68% 30.38 in 10.0 mi Calm Calm - N/A   Clear
1:15 AM 33.6 °F - 25.2 °F 71% 30.37 in 10.0 mi Calm Calm - N/A   Clear
1:35 AM 35.6 °F - 25.2 °F 66% 30.37 in 10.0 mi Calm Calm - N/A   Clear
1:55 AM 34.5 °F - 24.8 °F 68% 30.37 in 10.0 mi Calm Calm - N/A   Clear
2:15 AM 35.1 °F - 25.2 °F 67% 30.37 in 10.0 mi Calm Calm - N/A   Clear
2:35 AM 35.4 °F 32.6 °F 25.7 °F 68% 30.37 in 10.0 mi NNE 3.5 mph - N/A   Clear
2:55 AM 35.2 °F - 25.7 °F 68% 30.37 in 10.0 mi Calm Calm - N/A   Clear
3:15 AM 33.3 °F 30.2 °F 25.0 °F 72% 30.37 in 10.0 mi NE 3.5 mph - N/A   Clear
3:35 AM 32.7 °F - 25.0 °F 73% 30.37 in 10.0 mi Calm Calm - N/A   Clear
3:55 AM 32.7 °F - 25.0 °F 73% 30.36 in 10.0 mi Calm Calm - N/A   Clear
4:15 AM 32.2 °F 27.7 °F 24.6 °F 74% 30.36 in 10.0 mi NE 4.6 mph - N/A   Clear
4:35 AM 31.1 °F 25.4 °F 24.1 °F 75% 30.37 in 10.0 mi NNE 5.8 mph - N/A   Clear
4:55 AM 32.0 °F 27.5 °F 24.8 °F 75% 30.37 in 7.0 mi NNE 4.6 mph - N/A   Clear
5:15 AM 31.6 °F 26.0 °F 24.6 °F 75% 30.37 in 10.0 mi NE 5.8 mph - N/A   Clear
5:35 AM 31.1 °F 25.4 °F 24.4 °F 76% 30.36 in 10.0 mi NE 5.8 mph - N/A   Clear
5:55 AM 31.1 °F 26.4 °F 24.6 °F 77% 30.36 in 10.0 mi ENE 4.6 mph - N/A   Clear
6:15 AM 31.1 °F 27.7 °F 24.6 °F 77% 30.37 in 10.0 mi ENE 3.5 mph - N/A   Clear
6:35 AM 32.0 °F - 24.8 °F 75% 30.37 in 10.0 mi Calm Calm - N/A   Clear
6:55 AM 31.8 °F - 25.0 °F 76% 30.37 in 10.0 mi Calm Calm - N/A   Clear
7:15 AM 30.9 °F 27.5 °F 24.6 °F 77% 30.37 in 10.0 mi ESE 3.5 mph - N/A   Clear
7:35 AM 29.5 °F - 24.3 °F 81% 30.37 in 10.0 mi Calm Calm - N/A   Clear
7:55 AM 31.6 °F - 25.3 °F 78% 30.37 in 10.0 mi Calm Calm - N/A   Clear
8:35 AM 33.8 °F - 27.5 °F 78% 30.37 in 10.0 mi Calm Calm - N/A   Clear
8:55 AM 35.8 °F - 28.8 °F 76% 30.36 in 10.0 mi Calm Calm - N/A   Clear
9:15 AM 37.8 °F - 30.0 °F 74% 30.37 in 10.0 mi Calm Calm - N/A   Clear
9:35 AM 39.7 °F - 30.7 °F 70% 30.37 in 10.0 mi Calm Calm - N/A   Clear
9:55 AM 40.8 °F - 31.6 °F 70% 30.36 in 10.0 mi Calm Calm - N/A   Clear
10:15 AM 42.1 °F - 31.6 °F 67% 30.36 in 10.0 mi Calm Calm - N/A   Clear
10:35 AM 45.0 °F 43.5 °F 32.4 °F 61% 30.36 in 10.0 mi SE 3.5 mph - N/A   Clear
10:55 AM 48.0 °F - 32.7 °F 55% 30.35 in 10.0 mi Calm Calm - N/A   Clear
11:15 AM 48.9 °F - 32.4 °F 53% 30.34 in 10.0 mi Calm Calm - N/A   Clear
11:35 AM 50.0 °F - 32.9 °F 52% 30.34 in 10.0 mi Calm Calm - N/A   Clear
11:55 AM 51.3 °F - 33.1 °F 50% 30.33 in 10.0 mi SSW 3.5 mph - N/A   Clear
12:15 PM 52.0 °F - 32.4 °F 47% 30.33 in 10.0 mi Calm Calm - N/A   Clear
12:35 PM 52.9 °F - 32.2 °F 45% 30.31 in 10.0 mi Calm Calm - N/A   Clear
12:55 PM 53.6 °F - 32.2 °F 44% 30.31 in 10.0 mi Calm Calm - N/A   Clear
1:15 PM 54.0 °F - 32.0 °F 43% 30.30 in 10.0 mi Calm Calm - N/A   Clear
1:35 PM 54.7 °F - 31.8 °F 42% 30.29 in 10.0 mi Calm Calm - N/A   Clear
1:55 PM 55.6 °F - 31.8 °F 41% 30.29 in 10.0 mi Calm Calm - N/A   Clear
2:15 PM 56.3 °F - 31.8 °F 39% 30.28 in 10.0 mi Calm Calm - N/A   Clear
2:35 PM 56.3 °F - 32.2 °F 40% 30.27 in 10.0 mi Calm Calm - N/A   Clear
2:55 PM 56.3 °F - 32.0 °F 40% 30.27 in 10.0 mi Calm Calm - N/A   Clear
3:15 PM 56.1 °F - 32.4 °F 41% 30.26 in 10.0 mi Calm Calm - N/A   Clear
3:35 PM 55.9 °F - 32.7 °F 41% 30.26 in 10.0 mi Calm Calm - N/A   Clear
3:55 PM 55.4 °F - 33.4 °F 43% 30.26 in 10.0 mi Calm Calm - N/A   Clear
4:15 PM 54.7 °F - 34.3 °F 46% 30.25 in 10.0 mi ENE 3.5 mph - N/A   Clear
4:35 PM 54.5 °F - 35.1 °F 48% 30.25 in 10.0 mi Calm Calm - N/A   Clear
4:55 PM 54.5 °F - 34.2 °F 46% 30.24 in 10.0 mi ENE 4.6 mph - N/A   Clear
5:15 PM 52.0 °F - 33.8 °F 50% 30.23 in 10.0 mi ENE 4.6 mph - N/A   Clear
5:35 PM 50.7 °F - 33.4 °F 52% 30.24 in 10.0 mi Calm Calm - N/A   Clear
5:55 PM 51.4 °F - 33.1 °F 50% 30.25 in 10.0 mi Calm Calm - N/A   Clear
6:15 PM 50.5 °F - 33.4 °F 52% 30.24 in 10.0 mi Calm Calm - N/A   Clear
6:35 PM 48.9 °F - 33.6 °F 56% 30.25 in 10.0 mi Calm Calm - N/A   Clear
6:55 PM 48.0 °F - 33.8 °F 58% 30.24 in 10.0 mi East 3.5 mph - N/A   Clear
7:15 PM 45.3 °F - 33.8 °F 64% 30.24 in 10.0 mi Calm Calm - N/A   Clear
7:35 PM 43.7 °F 42.1 °F 33.4 °F 67% 30.23 in 10.0 mi East 3.5 mph - N/A   Clear
7:55 PM 43.9 °F - 33.3 °F 66% 30.23 in 10.0 mi Calm Calm - N/A   Clear
8:15 PM 44.4 °F - 33.4 °F 65% 30.23 in 10.0 mi Calm Calm - N/A   Clear
8:35 PM 43.7 °F - 33.1 °F 66% 30.22 in 10.0 mi Calm Calm - N/A   Clear
8:55 PM 42.8 °F - 33.4 °F 70% 30.23 in 10.0 mi Calm Calm - N/A   Clear
9:15 PM 43.5 °F - 33.4 °F 68% 30.22 in 10.0 mi Calm Calm - N/A   Clear
9:35 PM 42.8 °F 40.1 °F 33.1 °F 69% 30.21 in 10.0 mi ENE 4.6 mph - N/A   Clear
9:55 PM 41.0 °F - 32.9 °F 73% 30.21 in 10.0 mi Calm Calm - N/A   Clear
10:15 PM 40.8 °F - 32.9 °F 73% 30.21 in 10.0 mi Calm Calm - N/A   Clear
10:35 PM 41.4 °F - 32.9 °F 72% 30.21 in 10.0 mi Calm Calm - N/A   Clear
10:55 PM 42.1 °F - 33.1 °F 70% 30.21 in 10.0 mi Calm Calm - N/A   Clear
11:15 PM 42.4 °F - 33.3 °F 70% 30.21 in 10.0 mi Calm Calm - N/A   Clear
11:35 PM 40.6 °F - 32.5 °F 73% 30.20 in 10.0 mi Calm Calm - N/A   Clear
11:55 PM 38.5 °F - 32.0 °F 78% 30.19 in 10.0 mi Calm Calm - N/A   Clear